Flag Weather past 2 weeks in Inverness, Scotland, United Kingdom

Now
43 °F

Passing clouds.


Feels Like: 39 °F
Forecast: N/A
Wind: 6 mph from East

Location: Inverness / Dalcross

Current Time: Nov 27, 2014 at 9:02:21 PM

Latest Report: Nov 27, 2014 at 8:20 PM


Visibility: N/A

Pressure: 29.65 "Hg

Humidity: 100%

Dew point: 43 °F

Location of InvernessLocation

Historic Weather in Inverness — Graph

°F

Inverness temperature yesterday

Maximum temperature yesterday: 41 °F (at 12:20 PM)
Minimum temperature yesterday: 28 °F (at 4:20 AM)
Average temperature yesterday: 33 °F

Past Weeks' High & Low Weather Summary

 TemperatureHumidityPressure
High57 °F (Nov 13, 9:50 PM)100% (Nov 14, 4:50 PM)30.33 "Hg (Nov 14, 4:50 PM)
Low28 °F (Nov 26, 4:20 AM)67% (Nov 13, 12:50 PM)29.27 "Hg (Nov 12, 7:20 PM)
Average43 °F95%29.88 "Hg
* Reported Nov 12 7:20 PM — Nov 27 7:50 PM, Inverness, Weather by CustomWeather, © 2014

Note: Actual official high and low records may vary slightly from our data, if they occured in-between our weather recording intervals... More about our weather records

Advertising

Inverness weather history for previous 24 hours

 ConditionsComfort  
Time TempWeatherWind HumidityBarometerVisibility
7:50 PM
Nov 27
45 °FPassing clouds.5 mph100%29.65 "Hg6 mi
7:20 PM43 °FPassing clouds.6 mph100%29.62 "Hg6 mi
6:50 PM43 °FPassing clouds.5 mph100%29.62 "Hg6 mi
6:20 PM43 °FPassing clouds.5 mph100%29.62 "Hg6 mi
5:50 PM43 °FPassing clouds.6 mph100%29.62 "Hg5 mi
5:20 PM43 °FPassing clouds.5 mph100%29.62 "Hg6 mi
4:50 PM43 °FPassing clouds.6 mph100%29.62 "Hg6 mi
4:20 PM43 °FPassing clouds.2 mph100%29.62 "HgN/A
3:50 PM43 °FPassing clouds.3 mph100%29.62 "HgN/A
3:20 PM43 °FScattered clouds.7 mph100%29.62 "HgN/A
2:50 PM43 °FBroken clouds.2 mph100%29.62 "HgN/A
2:20 PM43 °FScattered clouds.No wind100%29.62 "HgN/A
1:50 PM43 °FScattered clouds.No wind100%29.65 "HgN/A
1:20 PM45 °FScattered clouds.No wind100%29.65 "HgN/A
12:50 PM45 °FScattered clouds.No wind100%29.65 "HgN/A
12:20 PM41 °FFog.3 mph100%29.65 "HgN/A
11:50 AM41 °FFog.5 mph100%29.68 "HgN/A
11:20 AM39 °FFog.2 mph100%29.68 "HgN/A
10:50 AM39 °FSnow. Fog.3 mph100%29.68 "HgN/A
10:20 AM39 °FFog.3 mph100%29.68 "HgN/A
9:50 AM37 °FFog.No wind100%29.68 "HgN/A
9:20 AM36 °FFog.No wind100%29.68 "HgN/A
8:50 AM34 °FFog.No wind100%29.68 "HgN/A
8:20 AM34 °FFog.2 mph100%29.68 "HgN/A
7:50 AM34 °FPassing clouds.No wind100%29.68 "HgN/A
7:20 AM34 °FPassing clouds.No wind100%29.68 "HgN/A
6:50 AM34 °FPassing clouds.No wind100%29.68 "HgN/A
6:20 AM32 °FFog.No wind100%29.68 "HgN/A
5:50 AM34 °FPassing clouds.2 mph100%29.68 "HgN/A
5:20 AM36 °FPassing clouds.2 mph100%29.71 "HgN/A
4:50 AM36 °FPassing clouds.No wind100%29.71 "HgN/A
4:20 AM36 °FPassing clouds.No wind100%29.71 "HgN/A
3:50 AM36 °FPassing clouds.No wind100%29.71 "HgN/A
3:20 AM36 °FPassing clouds.No wind100%29.74 "HgN/A
2:50 AM36 °FPassing clouds.2 mph100%29.74 "Hg6 mi
2:20 AM36 °FPassing clouds.No wind100%29.74 "Hg6 mi
1:50 AM36 °FChilly.No wind100%29.74 "HgN/A
1:20 AM36 °FPassing clouds.2 mph100%29.77 "Hg4 mi
12:50 AM36 °FOvercast.2 mph100%29.77 "Hg4 mi
12:20 AM36 °FPassing clouds.5 mph100%29.77 "Hg4 mi
11:50 PM
Nov 26
36 °FPassing clouds.5 mph100%29.80 "Hg3 mi
11:20 PM36 °FPassing clouds.2 mph100%29.80 "Hg4 mi
10:50 PM36 °FPassing clouds.3 mph100%29.80 "Hg4 mi
10:20 PM36 °FPassing clouds.2 mph100%29.83 "Hg4 mi
9:50 PM36 °FPassing clouds.No wind100%29.83 "HgN/A
9:20 PM34 °FPassing clouds.3 mph100%29.83 "HgN/A
Weather by CustomWeather, © 2014

See weather overviewHow to use our weather pages